Weather in Ulbroka

Latvia     56°56′22″N   24°17′17″E
temp.,
°C
wind,
m/s
gust,
m/s
humid.,
%
clouds,
%
prec.,
mm/h
press.,
hPa
HPBL,
m
7 may, fri
fri700:00+5sw61191100 0.1 10001077
03:00+5sw51187100 0.3 10001198
06:00+5sw41088100 0.3 1001972
09:00+6sw4887100 0.6 1003886
12:00+8w3572100 0.4 10041000
15:00+10sw356599 1.4 10041330
18:00+9w347199 1.2 1003928
21:00+5nnw3693100 1.9 1005244
8 may, sat
sat800:00+3nw369350 0.0 1005341
03:00+3nw478475 0.1 1006535
06:00+3wnw498876 0.1 1007723
09:00+5wnw58758 0.2 10091014
12:00+8nw510500 0.0 10101533
15:00+9nnw58380 0.0 10111413
18:00+9nnw46380 0.0 10131014
21:00+6w11533 0.0 101420
9 may, sun
sun900:00+4ssw22554 0.0 101533
03:00+2ssw36775 0.0 1017161
06:00+2ssw389168 0.0 1018215
09:00+7ssw5968100 0.0 1018530
12:00+11ssw5746100 0.0 10191374
15:00+13ssw4839100 0.0 10182013
18:00+12s41157100 0.1 10181569
21:00+11s61461100 0.1 1016988
10 may, mon
mon1000:00+11ssw51472100 0.0 1017628
03:00+11s51376100 0.0 1018504
06:00+10s5137927 0.0 1019409
09:00+14s6136245 0.0 1020521
12:00+18s711485 0.0 1020987
15:00+20s7114365 0.0 10201297
18:00+20s6125060 0.0 10191232
21:00+17s61361100 0.0 1019967
11 may, tue
tue1100:00+14sse6156698 0.0 1019740
03:00+13sse5157099 0.0 1020584
06:00+12sse5147298 0.0 1020565
09:00+15sse61361100 0.0 1020625
12:00+19s7104553 0.0 10201006
15:00+22sse711390 0.0 10201313
18:00+21sse612420 0.0 10191145
21:00+17sse512540 0.0 1019912